• In Deutschland
  • Länderverzeichnis
  • Für 7 Tage
  • Wassertemperatur
  • Satellitenkarten
  • Wetterkarte
  • Widgets
  • user-avatar
    Anmelden

    Stündliche Wetter Armawir

    Heute, 26 September, Dienstag

    Zeit Temperatur Niederschläge Wind Luftdruck Luftfeuchtigkeit
    00:00 +20°C° 0 mm 1 m/S 689 mmHg 57%
    01:00 +19°C° 0 mm 1 m/S 689 mmHg 59%
    02:00 +19°C° 0 mm 1 m/S 689 mmHg 60%
    03:00 +18°C° 0 mm 1 m/S 689 mmHg 62%
    04:00 +18°C° 0 mm 1 m/S 689 mmHg 64%
    05:00 +18°C° 0 mm 1 m/S 688 mmHg 66%
    06:00 +16°C° 0 mm 1 m/S 688 mmHg 67%
    07:00 +19°C° 0 mm 1 m/S 689 mmHg 58%
    08:00 +22°C° 0 mm 1 m/S 689 mmHg 48%
    09:00 +24°C° 0 mm 1 m/S 689 mmHg 39%
    10:00 +25°C° 0 mm 1 m/S 689 mmHg 34%
    11:00 +27°C° 0 mm 2 m/S 689 mmHg 29%
    12:00 +28°C° 0 mm 2 m/S 688 mmHg 24%
    13:00 +28°C° 0 mm 2 m/S 688 mmHg 23%
    14:00 +29°C° 0 mm 2 m/S 688 mmHg 22%
    15:00 +29°C° 0 mm 2 m/S 688 mmHg 20%
    16:00 +27°C° 0 mm 2 m/S 687 mmHg 24%
    17:00 +25°C° 0 mm 2 m/S 687 mmHg 27%
    18:00 +24°C° 0 mm 2 m/S 687 mmHg 30%
    19:00 +23°C° 0 mm 2 m/S 687 mmHg 34%
    20:00 +23°C° 0 mm 2 m/S 687 mmHg 38%
    21:00 +21°C° 0 mm 2 m/S 687 mmHg 43%
    22:00 +21°C° 0,1 mm 2 m/S 688 mmHg 46%
    23:00 +21°C° 0,1 mm 2 m/S 688 mmHg 50%

    Morgen, 27 September, Mittwoch

    Zeit Temperatur Niederschläge Wind Luftdruck Luftfeuchtigkeit
    00:00 +20°C° 0,1 mm 2 m/S 688 mmHg 53%
    01:00 +20°C° 0 mm 2 m/S 687 mmHg 56%
    02:00 +20°C° 0 mm 1 m/S 687 mmHg 58%
    03:00 +20°C° 0 mm 1 m/S 687 mmHg 61%
    04:00 +19°C° 0,2 mm 1 m/S 687 mmHg 62%
    05:00 +19°C° 0,2 mm 1 m/S 687 mmHg 62%
    06:00 +19°C° 0,2 mm 1 m/S 687 mmHg 63%
    07:00 +21°C° 0,2 mm 1 m/S 687 mmHg 55%
    08:00 +22°C° 0,2 mm 1 m/S 687 mmHg 47%
    09:00 +24°C° 0,2 mm 1 m/S 688 mmHg 39%
    10:00 +25°C° 0,3 mm 2 m/S 687 mmHg 36%
    11:00 +27°C° 0,3 mm 2 m/S 687 mmHg 33%
    12:00 +28°C° 0,3 mm 3 m/S 687 mmHg 31%
    13:00 +28°C° 0,4 mm 3 m/S 687 mmHg 30%
    14:00 +28°C° 0,4 mm 3 m/S 686 mmHg 30%
    15:00 +29°C° 0,4 mm 3 m/S 686 mmHg 29%
    16:00 +27°C° 0,5 mm 3 m/S 686 mmHg 35%
    17:00 +25°C° 0,5 mm 3 m/S 686 mmHg 40%
    18:00 +24°C° 0,5 mm 3 m/S 686 mmHg 45%
    19:00 +22°C° 0,4 mm 3 m/S 686 mmHg 51%
    20:00 +21°C° 0,4 mm 2 m/S 687 mmHg 56%
    21:00 +20°C° 0,4 mm 2 m/S 687 mmHg 62%
    22:00 +19°C° 0,2 mm 2 m/S 687 mmHg 63%
    23:00 +19°C° 0,2 mm 2 m/S 687 mmHg 65%

    übermorgen, 28 September, Donnerstag

    Zeit Temperatur Niederschläge Wind Luftdruck Luftfeuchtigkeit
    00:00 +19°C° 0,2 mm 1 m/S 687 mmHg 67%
    01:00 +19°C° 0,2 mm 1 m/S 687 mmHg 68%
    02:00 +18°C° 0,2 mm 1 m/S 687 mmHg 70%
    03:00 +18°C° 0,2 mm 1 m/S 686 mmHg 71%
    04:00 +18°C° 0,1 mm 1 m/S 686 mmHg 71%
    05:00 +16°C° 0,1 mm 1 m/S 686 mmHg 72%
    06:00 +16°C° 0,1 mm 1 m/S 687 mmHg 72%
    07:00 +19°C° 0,1 mm 1 m/S 687 mmHg 65%
    08:00 +21°C° 0,1 mm 1 m/S 687 mmHg 57%
    09:00 +22°C° 0,1 mm 1 m/S 688 mmHg 50%
    10:00 +23°C° 0,1 mm 2 m/S 688 mmHg 46%
    11:00 +25°C° 0,1 mm 2 m/S 688 mmHg 42%
    12:00 +26°C° 0,1 mm 2 m/S 688 mmHg 38%
    13:00 +26°C° 0,2 mm 2 m/S 688 mmHg 37%
    14:00 +26°C° 0,2 mm 2 m/S 688 mmHg 35%
    15:00 +27°C° 0,2 mm 2 m/S 687 mmHg 33%
    16:00 +25°C° 0,2 mm 3 m/S 688 mmHg 39%
    17:00 +24°C° 0,2 mm 3 m/S 688 mmHg 44%
    18:00 +22°C° 0,2 mm 4 m/S 688 mmHg 49%
    19:00 +21°C° 0,1 mm 3 m/S 688 mmHg 54%
    20:00 +19°C° 0,1 mm 3 m/S 688 mmHg 59%
    21:00 +18°C° 0,1 mm 3 m/S 689 mmHg 63%
    22:00 +18°C° 0 mm 3 m/S 689 mmHg 65%
    23:00 +17°C° 0 mm 2 m/S 689 mmHg 67%

    29 September, Freitag

    Zeit Temperatur Niederschläge Wind Luftdruck Luftfeuchtigkeit
    00:00 +17°C° 0 mm 2 m/S 689 mmHg 69%
    01:00 +16°C° 0 mm 2 m/S 689 mmHg 70%
    02:00 +16°C° 0 mm 2 m/S 688 mmHg 71%
    03:00 +16°C° 0 mm 2 m/S 688 mmHg 72%
    04:00 +15°C° 0 mm 2 m/S 688 mmHg 73%
    05:00 +15°C° 0 mm 2 m/S 688 mmHg 74%
    06:00 +15°C° 0 mm 2 m/S 688 mmHg 75%
    07:00 +17°C° 0 mm 2 m/S 689 mmHg 67%
    08:00 +18°C° 0 mm 2 m/S 689 mmHg 58%
    09:00 +20°C° 0 mm 2 m/S 689 mmHg 50%
    10:00 +22°C° 0 mm 3 m/S 689 mmHg 46%
    11:00 +24°C° 0 mm 3 m/S 689 mmHg 42%
    12:00 +25°C° 0 mm 3 m/S 688 mmHg 38%
    13:00 +25°C° 0 mm 3 m/S 688 mmHg 37%
    14:00 +26°C° 0 mm 3 m/S 688 mmHg 37%
    15:00 +26°C° 0 mm 3 m/S 687 mmHg 36%
    16:00 +25°C° 0,3 mm 3 m/S 687 mmHg 41%
    17:00 +22°C° 0,3 mm 3 m/S 687 mmHg 46%
    18:00 +21°C° 0,3 mm 3 m/S 687 mmHg 50%
    19:00 +20°C° 0,2 mm 3 m/S 687 mmHg 54%
    20:00 +19°C° 0,2 mm 3 m/S 687 mmHg 57%
    21:00 +18°C° 0,2 mm 3 m/S 687 mmHg 60%
    22:00 +18°C° 0,1 mm 2 m/S 687 mmHg 62%
    23:00 +17°C° 0,1 mm 2 m/S 686 mmHg 63%

    30 September, Samstag

    Zeit Temperatur Niederschläge Wind Luftdruck Luftfeuchtigkeit
    00:00 +17°C° 0,1 mm 2 m/S 686 mmHg 65%
    01:00 +17°C° 0,1 mm 2 m/S 686 mmHg 64%
    02:00 +17°C° 0,1 mm 2 m/S 686 mmHg 64%
    03:00 +17°C° 0,1 mm 2 m/S 686 mmHg 63%
    04:00 +17°C° 0,2 mm 2 m/S 686 mmHg 63%
    05:00 +17°C° 0,2 mm 2 m/S 686 mmHg 63%
    06:00 +17°C° 0,2 mm 2 m/S 686 mmHg 63%
    07:00 +18°C° 0,2 mm 2 m/S 686 mmHg 58%
    08:00 +19°C° 0,2 mm 2 m/S 686 mmHg 54%
    09:00 +20°C° 0,2 mm 2 m/S 686 mmHg 49%
    10:00 +21°C° 0,4 mm 2 m/S 685 mmHg 47%
    11:00 +23°C° 0,4 mm 2 m/S 685 mmHg 45%
    12:00 +24°C° 0,4 mm 2 m/S 685 mmHg 43%
    13:00 +24°C° 0,4 mm 2 m/S 684 mmHg 41%
    14:00 +24°C° 0,4 mm 1 m/S 684 mmHg 40%
    15:00 +25°C° 0,4 mm 1 m/S 683 mmHg 39%
    16:00 +23°C° 0,7 mm 1 m/S 683 mmHg 44%
    17:00 +22°C° 0,7 mm 1 m/S 683 mmHg 49%
    18:00 +21°C° 0,7 mm 1 m/S 683 mmHg 54%
    19:00 +20°C° 0,5 mm 1 m/S 683 mmHg 57%
    20:00 +19°C° 0,5 mm 1 m/S 684 mmHg 60%
    21:00 +19°C° 0,5 mm 1 m/S 684 mmHg 63%
    22:00 +18°C° 0,1 mm 1 m/S 684 mmHg 63%
    23:00 +18°C° 0,1 mm 1 m/S 684 mmHg 63%

    1 Oktober, Sonntag

    Zeit Temperatur Niederschläge Wind Luftdruck Luftfeuchtigkeit
    00:00 +17°C° 0,1 mm 2 m/S 684 mmHg 63%
    01:00 +16°C° 0,1 mm 2 m/S 685 mmHg 64%
    02:00 +16°C° 0,1 mm 2 m/S 685 mmHg 64%
    03:00 +16°C° 0,1 mm 1 m/S 685 mmHg 64%
    04:00 +16°C° 0 mm 2 m/S 685 mmHg 65%
    05:00 +15°C° 0 mm 2 m/S 685 mmHg 65%
    06:00 +15°C° 0 mm 2 m/S 686 mmHg 66%
    07:00 +17°C° 0 mm 2 m/S 686 mmHg 59%
    08:00 +19°C° 0 mm 2 m/S 686 mmHg 52%
    09:00 +21°C° 0 mm 2 m/S 687 mmHg 45%
    10:00 +22°C° 0 mm 3 m/S 687 mmHg 40%
    11:00 +25°C° 0 mm 3 m/S 686 mmHg 36%
    12:00 +26°C° 0 mm 4 m/S 686 mmHg 32%
    13:00 +26°C° 0,1 mm 4 m/S 686 mmHg 31%
    14:00 +26°C° 0,1 mm 4 m/S 686 mmHg 30%
    15:00 +26°C° 0,1 mm 5 m/S 685 mmHg 30%
    16:00 +25°C° 0,1 mm 4 m/S 685 mmHg 33%
    17:00 +24°C° 0,1 mm 3 m/S 685 mmHg 37%
    18:00 +21°C° 0,1 mm 3 m/S 685 mmHg 40%
    19:00 +21°C° 0,1 mm 2 m/S 685 mmHg 42%
    20:00 +20°C° 0,1 mm 2 m/S 685 mmHg 44%
    21:00 +19°C° 0,1 mm 2 m/S 686 mmHg 46%
    22:00 +19°C° 0,2 mm 2 m/S 686 mmHg 47%
    23:00 +19°C° 0,2 mm 2 m/S 686 mmHg 48%
    Mehr zeigen